User: anonymous
Location: South Tamworth Observatory
(43.8246°N, 71.3026°W)
Time: 04:25:02
(UTC-04:00)
Language:

Cosmos 2208 Rocket - Orbit

View from above orbital plane
View from above orbital plane
View from above satellite
View from above satellite

Ground track
Ground track

The orbit data is extracted from the following two-line orbital elements,

1 22081U 92053B   14274.05254630  .00000249  00000-0  99649-4 0  6943
2 22081 074.0433 086.2622 0037055 297.7289 062.0105 14.33104894156986
Epoch (UTC): 01 October 2014 01:15:40
Eccentricity: 0.0037055
inclination: 74.0433°
perigee height: 755 km
apogee height: 808 km
right ascension of ascending node: 86.2622°
argument of perigee: 297.7289°
revolutions per day: 14.33104894
mean anomaly at epoch: 62.0105°
orbit number at epoch: 15698

The dashed part of the orbit path shows where the satellite is in the earth's shadow,  

DLR